{"data":{"norad_id":53048,"intl_designator":"2022-077F","name":"STARLINK-4355","alt_names":[],"object_type":"PAYLOAD","status":"ACTIVE","operator":null,"country":"US","launch_date":"2022-07-11","launch_site_code":"AFWTR","launch_vehicle":null,"mission":null,"orbit_class":"UNKNOWN","rcs_meters":null,"size_class":null,"mass_kg":null,"dimensions":null,"purposes":["comms"],"wikipedia_slug":null,"has_3d_model":false,"image_url":null,"decayed_at":null,"tle_current":{"epoch":"2026-09-19T22:34:44.980032Z","epoch_age_seconds":117775,"freshness":"FRESH","line1":"1 53048U 22077F   26262.94079838  .00000494  00000+0  17633-4 0  9994","line2":"2 53048  97.2852  78.6988 0001434  94.4570 265.6837 15.33437516230260","mean_motion":15.33437516,"eccentricity":0.0001434,"inclination_deg":97.2852,"raan_deg":78.6988,"arg_perigee_deg":94.457,"mean_anomaly_deg":265.6837,"bstar":1.7633e-5,"rev_number":23026,"period_min":93.906662969631,"perigee_km":464.58405475711,"apogee_km":466.54682861739,"semimajor_km":6843.7024416873,"source":"CELESTRAK","updated_at":"2026-09-20T09:00:40.150584Z"}}}